CW3467 Sant Marti de Canals ES current weather conditions

sailwx.info

Wind from 012

Air temperature 21.1° C
Dewpoint 16.9° C

Last reported at 2014-Sep-17 18:32 UTC.
Time now 2014-Sep-17 19:32 UTC

Location: N 42°14' E 000°59'.
View on Google Maps.

See reports from other nearby stations

  
Tides and Currents Weather Stations Pressure Air Temp Water Temp Dewpoint Dewpoint Depression Visibility Wind Speed Wind Dir Waves Ship Positions
date/time (UTC)wind fromknots sea level pressurealtimeterstation pressurevisibilityair tempwater tempwave heightnotes
2014-Sep-17 18:32 012 21.1
2014-Sep-17 18:17 274 21.7
2014-Sep-17 18:02 145 22.2
2014-Sep-17 17:47 320 23.9
2014-Sep-17 17:32 252 26.1
2014-Sep-17 17:17 264 25.6
2014-Sep-17 17:02 215 25.6
2014-Sep-17 16:47 262 0 gusting 4 25.6
2014-Sep-17 16:32 228 0 gusting 2 26.1
2014-Sep-17 16:17 212 1 gusting 3 26.1
2014-Sep-17 16:02 215 26.1
2014-Sep-17 15:47 242 0 gusting 4 25.6
2014-Sep-17 15:32 217 25.6
2014-Sep-17 15:17 219 0 gusting 3 24.4
2014-Sep-17 15:02 222 0 gusting 3 25.6
2014-Sep-17 14:47 195 25.6
2014-Sep-17 14:32 256 2 gusting 6 24.4
2014-Sep-17 14:17 229 0 gusting 3 24.4
2014-Sep-17 14:02 262 2 gusting 5 25.0
2014-Sep-17 13:47 252 24.4
2014-Sep-17 13:32 246 23.9
2014-Sep-17 13:17 235 23.9
2014-Sep-17 13:02 219 23.9
2014-Sep-17 12:47 200 24.4
2014-Sep-17 12:32 264 24.4
2014-Sep-17 12:17 260 24.4
2014-Sep-17 12:02 271 22.8
2014-Sep-17 11:47 287 22.2
2014-Sep-17 11:32 302 22.8
2014-Sep-17 11:17 255 22.8
2014-Sep-17 11:02 226 0 gusting 2 22.8
2014-Sep-17 10:47 182 21.1
2014-Sep-17 10:32 207 21.1
2014-Sep-17 10:17 190 20.0
2014-Sep-17 10:02 269 20.0
2014-Sep-17 09:46 252 19.4
2014-Sep-17 09:31 243 19.4
2014-Sep-17 09:16 197 19.4
2014-Sep-17 09:01 149 18.9
2014-Sep-17 08:46 221 18.3
2014-Sep-17 08:31 225 17.8
2014-Sep-17 08:16 226 17.2
2014-Sep-17 08:01 219 16.7
2014-Sep-17 07:46 148 0 gusting 2 16.1
2014-Sep-17 07:31 146 15.0
2014-Sep-17 07:16 148 15.6
2014-Sep-17 07:01 100 16.1
2014-Sep-17 06:46 098 15.0
2014-Sep-17 06:31 098 15.0
2014-Sep-17 06:16 105 15.0
2014-Sep-17 06:01 105 15.0
2014-Sep-17 05:46 073 15.0
2014-Sep-17 05:31 076 15.0
2014-Sep-17 05:16 077 15.0
2014-Sep-17 05:01 061 15.0
2014-Sep-17 04:46 350 15.0
2014-Sep-17 04:31 349 15.0
2014-Sep-17 04:16 103 0 gusting 2 15.0
2014-Sep-17 04:01 100 1 gusting 2 15.0
2014-Sep-17 03:46 139 15.0
2014-Sep-17 03:31 140 15.0
2014-Sep-17 03:16 333 15.6
2014-Sep-17 03:01 349 15.6
2014-Sep-17 02:46 302 1 gusting 4 16.1
2014-Sep-17 02:31 108 2 gusting 4 16.1
2014-Sep-17 02:16 143 15.6
2014-Sep-17 02:01 105 16.1
2014-Sep-17 01:46 127 0 gusting 1 16.1
2014-Sep-17 01:31 110 16.1
2014-Sep-17 01:16 110 16.1
2014-Sep-17 01:01 109 16.1
2014-Sep-17 00:46 126 16.7
2014-Sep-17 00:31 117 16.1
2014-Sep-17 00:16 215 16.1
2014-Sep-17 00:01 150 1 gusting 4 16.1
2014-Sep-16 23:46 232 16.7
2014-Sep-16 23:31 032 16.7
2014-Sep-16 23:16 051 16.7
2014-Sep-16 23:01 120 1 gusting 2 16.7
2014-Sep-16 22:46 103 0 gusting 1 16.7
2014-Sep-16 22:31 252 17.2
2014-Sep-16 22:16 348 1 gusting 4 17.2
2014-Sep-16 22:01 023 0 gusting 5 17.2
2014-Sep-16 21:46 047 0 gusting 5 17.2
2014-Sep-16 21:31 041 1 gusting 11 17.2
2014-Sep-16 21:16 321 2 gusting 8 17.2
2014-Sep-16 21:01 026 3 gusting 7 17.2
2014-Sep-16 20:45 120 7 gusting 13 17.8
2014-Sep-16 20:30 163 10 gusting 21 20.0
2014-Sep-16 20:15 127 6 gusting 10 21.1
2014-Sep-16 20:00 094 21.1
2014-Sep-16 19:45 117 7 gusting 13 21.1
2014-Sep-16 19:30 194 6 gusting 11 21.1
2014-Sep-16 19:15 134 6 gusting 13 20.6
2014-Sep-16 19:00 183 9 gusting 17 21.1
2014-Sep-16 18:45 203 4 gusting 10 21.1
2014-Sep-16 18:30 149 6 gusting 13 21.1
2014-Sep-16 18:15 131 6 gusting 14 21.7
2014-Sep-16 18:00 142 9 gusting 19 22.2
2014-Sep-16 17:45 153 10 gusting 14 22.8
2014-Sep-16 17:30 122 9 gusting 15 22.8
2014-Sep-16 17:15 122 7 gusting 17 23.3
2014-Sep-16 17:00 194 9 gusting 18 23.3
2014-Sep-16 16:45 162 7 gusting 13 23.9
2014-Sep-16 16:30 153 8 gusting 13 23.9
2014-Sep-16 16:15 161 6 gusting 12 23.9
2014-Sep-16 16:00 142 7 gusting 15 24.4
2014-Sep-16 15:45 179 6 gusting 9 24.4
2014-Sep-16 15:30 139 3 gusting 13 25.0
2014-Sep-16 15:15 145 9 gusting 13 25.0
2014-Sep-16 15:00 143 4 gusting 10 25.6
2014-Sep-16 14:45 154 7 gusting 13 25.6
2014-Sep-16 14:30 136 9 gusting 15 25.6
2014-Sep-16 14:15 158 5 gusting 10 26.1
2014-Sep-16 14:00 172 4 gusting 13 25.6
2014-Sep-16 13:45 136 5 gusting 8 25.0
2014-Sep-16 13:30 129 5 gusting 7 25.0
2014-Sep-16 13:15 073 1 gusting 3 25.6
2014-Sep-16 13:00 191 2 gusting 6 25.6
2014-Sep-16 12:45 160 26.7
2014-Sep-16 12:30 259 0 gusting 2 25.6
2014-Sep-16 12:15 266 2 gusting 5 25.0
2014-Sep-16 12:00 291 1 gusting 5 25.0
2014-Sep-16 11:45 255 0 gusting 3 25.6
2014-Sep-16 11:30 259 25.0
2014-Sep-16 11:15 228 23.9
2014-Sep-16 11:00 353 0 gusting 3 23.9
2014-Sep-16 10:45 010 22.8
2014-Sep-16 10:29 229 23.3
2014-Sep-16 10:14 240 22.8
2014-Sep-16 09:59 238 21.7
2014-Sep-16 09:44 217 21.7
2014-Sep-16 09:29 205 20.6
2014-Sep-16 09:14 145 0 gusting 2 20.0
2014-Sep-16 09:00 207 18.9
2014-Sep-16 08:44 211 0 gusting 3 18.3
2014-Sep-16 08:29 138 1 gusting 4 18.3
2014-Sep-16 08:14 219 0 gusting 1 17.8
2014-Sep-16 07:59 210 1 gusting 3 17.2
2014-Sep-16 07:44 131 0 gusting 2 16.1
2014-Sep-16 07:29 174 15.6
2014-Sep-16 07:14 204 15.0
2014-Sep-16 06:59 141 13.9
2014-Sep-16 06:44 149 0 gusting 1 13.9
2014-Sep-16 06:29 141 0 gusting 2 13.9
2014-Sep-16 06:14 101 13.3
2014-Sep-16 05:59 123 13.3
2014-Sep-16 05:44 345 13.3
2014-Sep-16 05:29 130 13.3
2014-Sep-16 05:14 040 13.3
2014-Sep-16 04:59 039 13.3
2014-Sep-16 04:44 353 13.3
2014-Sep-16 04:29 100 13.9
2014-Sep-16 04:14 139 13.9
2014-Sep-16 03:59 103 13.9
2014-Sep-16 03:44 344 13.9
2014-Sep-16 03:29 098 14.4
2014-Sep-16 03:14 103 1 gusting 2 13.9
2014-Sep-16 02:59 111 2 gusting 3 13.9
2014-Sep-16 02:44 221 13.9
2014-Sep-16 02:29 355 13.9
2014-Sep-16 01:59 100 14.4
2014-Sep-16 01:44 130 0 gusting 3 15.0
2014-Sep-16 01:29 097 2 gusting 4 14.4
2014-Sep-16 01:13 122 1 gusting 2 15.0
2014-Sep-16 00:58 049 15.0
2014-Sep-16 00:43 053 15.0
2014-Sep-16 00:28 131 15.6
2014-Sep-16 00:13 100 15.6
2014-Sep-15 23:58 004 15.6
2014-Sep-15 23:43 131 1 gusting 3 15.6
2014-Sep-15 23:28 139 2 gusting 4 15.6
2014-Sep-15 23:13 143 0 gusting 1 15.6
2014-Sep-15 22:58 084 16.1
2014-Sep-15 22:28 102 16.1
2014-Sep-15 22:13 336 16.1
2014-Sep-15 21:58 108 16.7
2014-Sep-15 21:43 096 1 gusting 3 16.7
2014-Sep-15 21:28 083 0 gusting 2 16.7
2014-Sep-15 21:13 027 17.2
2014-Sep-15 20:58 026 17.2
2014-Sep-15 20:43 113 17.2
2014-Sep-15 20:28 113 17.8
2014-Sep-15 20:13 113 2 gusting 2 17.8
2014-Sep-15 19:58 068 0 gusting 0 18.3
2014-Sep-15 19:43 101 1 gusting 2 18.3
2014-Sep-15 19:28 113 0 gusting 1 18.9
2014-Sep-15 19:13 120 18.9